This demonstration page uses our WeatherBlox Daily Observations layout. Learn more.

Left ArrowRight Arrow

34.16533, -84.80231

Hourly Observations for March 21, 2021

Temp ( °F °C ) Dew Point ( °F °C ) Humidity (%) Winds ( mph kmh ) Pressure ( in mb ) Visibility ( mi km ) Precip ( " mm )
12:53 am 00:53 Clear 48 8.9 24 -4.4 39 39 Calm 30.35 1028 10 16 0.00 0.00
1:53 am 01:53 Clear 40 4.4 30 -1.1 68 68 Calm 30.34 1027 10 16 0.00 0.00
2:53 am 02:53 Clear 39 3.9 29 -1.7 67 67 Calm 30.33 1027 10 16 0.00 0.00
3:53 am 03:53 Partly Cloudy 37 2.8 30 -1.1 76 76 Calm 30.31 1026 10 16 0.00 0.00
4:53 am 04:53 Cloudy 44 6.7 33 0.6 65 65 Calm 30.30 1026 10 16 0.00 0.00
5:53 am 05:53 Cloudy 49 9.4 34 1.1 56 56 E 6 9 30.30 1026 10 16 0.00 0.00
6:53 am 06:53 Cloudy 49 9.4 35 1.7 59 59 VRB 6 9 30.32 1027 10 16 0.00 0.00
7:06 am 07:06 Cloudy 49 9.4 35 1.7 59 59 E 7 11 30.35 1028 10 16 0.00 0.00
7:53 am 07:53 Cloudy 49 9.4 36 2.2 61 61 ENE 6 9 30.34 1027 10 16 0.00 0.00
8:11 am 08:11 Cloudy 49 9.4 36 2.2 61 61 VRB 6 9 30.36 1028 10 16 0.00 0.00
8:53 am 08:53 Cloudy 49 9.4 36 2.2 61 61 ENE 6 9 30.35 1028 10 16 0.00 0.00
9:53 am 09:53 Cloudy 51 10.6 37 2.8 59 59 VRB 7 11 30.34 1028 10 16 0.00 0.00
10:53 am 10:53 Cloudy 54 12.2 39 3.9 57 57 ENE 8 13 30.34 1028 10 16 0.00 0.00
11:53 am 11:53 Cloudy 59 15 42 5.6 54 54 ENE 9 15 30.32 1027 10 16 0.00 0.00
12:53 pm 12:53 Mostly Cloudy 61 16.1 42 5.6 50 50 VRB 7 11 30.31 1026 10 16 0.00 0.00
1:53 pm 13:53 Cloudy 63 17.2 43 6.1 48 48 ENE 8 13 30.29 1026 10 16 0.00 0.00
2:53 pm 14:53 Mostly Cloudy 65 18.3 44 6.7 47 47 NE 9 15 30.26 1025 10 16 0.00 0.00
3:53 pm 15:53 Mostly Cloudy 67 19.4 44 6.7 44 44 ESE 10 17 30.25 1024 10 16 0.00 0.00
4:53 pm 16:53 Cloudy 66 18.9 43 6.1 43 43 ESE 6 9 30.24 1024 10 16 0.00 0.00
5:53 pm 17:53 Cloudy 67 19.4 44 6.7 44 44 NE 7 11 30.22 1023 10 16 0.00 0.00
6:53 pm 18:53 Cloudy 65 18.3 44 6.7 47 47 VRB 6 9 30.23 1024 10 16 0.00 0.00
7:53 pm 19:53 Cloudy 63 17.2 44 6.7 50 50 E 10 17 30.24 1024 10 16 0.00 0.00
8:53 pm 20:53 Mostly Cloudy 59 15 45 7.2 60 60 E 7 11 30.24 1024 10 16 0.00 0.00
9:53 pm 21:53 Mostly Cloudy 57 13.9 44 6.7 62 62 VRB 3 6 30.24 1024 10 16 0.00 0.00
10:53 pm 22:53 Clear 52 11.1 44 6.7 75 75 Calm 30.24 1024 10 16 0.00 0.00
11:53 pm 23:53 Clear 49 9.4 43 6.1 80 80 Calm 30.24 1024 10 16 0.00 0.00

Powered by AerisWeather